Ypsilanti, MI

6:43 PM EST on February 05, 2016 (GMT -0500)
Willow Run

Weather History for KYIP - February, 2013

Change the Weather History Date:

Monday, February 4, 2013

  Actual Average Record
Temperature  
Mean Temperature 22 °F -  
Max Temperature 25 °F 30 °F 56 °F (1991)
Min Temperature 18 °F 18 °F -5 °F (2007)
Degree Days  
Heating Degree Days 44    
Moisture  
Dew Point 15 °F    
Average Humidity 76    
Maximum Humidity 86    
Minimum Humidity 68    
Precipitation  
Precipitation 0.02 in - - ()
Sea Level Pressure  
Sea Level Pressure 29.95 in    
Wind  
Wind Speed 3 mph (ESE)    
Max Wind Speed 7 mph    
Max Gust Speed -    
Visibility 4 miles    
Events Snow    
Averages and records for this station are not official NWS values.
T = Trace of Precipitation, MM = Missing Value Source: NWS Daily Summary

Daily Weather History Graph

Daily Weather History Graph

Search for Another Location

Airport or City:

Trip Planner

Search our weather history database for the weather conditions in past years. The results will help you decide how hot, cold, wet, or windy it might be!

Date:

Astronomy

Feb. 04, 2013 Rise Set
Actual Time 7:43 AM EST 5:52 PM EST
Civil Twilight 7:14 AM EST 6:22 PM EST
Nautical Twilight 6:41 AM EST 6:55 PM EST
Astronomical Twilight 6:08 AM EST 7:28 PM EST
Moon 2:19 AM EST (2/4) 12:13 PM EST (2/4)
Length of Visible Light 11h 07m
Length of Day
10h 08m
Last Quarter, 37% of the Moon is Illuminated
Feb 4
Last Quarter
Feb 10
New
Feb 17
First Quarter
Feb 25
Full
Mar 4
Last Quarter

Hourly Weather History & Observations

Time (EST) Temp. Windchill Dew Point Humidity Pressure Visibility Wind Dir Wind Speed Gust Speed Precip Events Conditions
12:53 AM 19.0 °F 10.0 °F 10.0 °F 68% 30.04 in 10.0 mi WSW 6.9 mph - N/A   Overcast
1:53 AM 19.0 °F 11.1 °F 10.9 °F 71% 30.04 in 10.0 mi WSW 5.8 mph - 0.00 in   Overcast
2:53 AM 19.9 °F 13.4 °F 10.9 °F 68% 30.04 in 10.0 mi WSW 4.6 mph - N/A   Overcast
3:53 AM 19.9 °F 14.9 °F 12.0 °F 71% 30.03 in 10.0 mi WSW 3.5 mph - N/A   Overcast
4:18 AM 19.4 °F 14.3 °F 12.2 °F 74% 30.00 in 9.0 mi SW 3.5 mph - 0.00 in   Overcast
5:53 AM 19.0 °F 12.3 °F 12.9 °F 77% 30.01 in 6.0 mi South 4.6 mph - 0.00 in   Haze
6:53 AM 18.0 °F 12.7 °F 12.9 °F 81% 30.01 in 8.0 mi SSE 3.5 mph - N/A   Overcast
7:26 AM 19.4 °F - 12.2 °F 74% 29.97 in 8.0 mi Calm Calm - N/A   Overcast
7:53 AM 19.9 °F 13.4 °F 12.9 °F 74% 30.00 in 4.0 mi SSE 4.6 mph - 0.00 in Snow Light Snow
8:05 AM 19.4 °F 12.8 °F 12.2 °F 74% 29.97 in 2.5 mi SSE 4.6 mph - 0.00 in Snow Light Snow
8:17 AM 19.4 °F - 12.2 °F 74% 29.97 in 1.8 mi Calm Calm - 0.00 in Snow Light Snow
8:53 AM 19.9 °F - 14.0 °F 78% 30.01 in 1.5 mi Calm Calm - 0.00 in Snow Light Snow
9:28 AM 19.4 °F 14.3 °F 15.8 °F 86% 29.98 in 0.8 mi SE 3.5 mph - 0.00 in Snow Light Snow
9:53 AM 19.9 °F - 14.0 °F 78% 30.01 in 1.0 mi Calm Calm - 0.00 in Snow Light Snow
10:53 AM 21.0 °F - 15.1 °F 78% 30.00 in 0.8 mi Calm Calm - 0.00 in Snow Light Snow
11:11 AM 21.2 °F - 15.8 °F 80% 29.97 in 1.0 mi Calm Calm - 0.00 in Snow Light Snow
11:32 AM 21.2 °F - 15.8 °F 80% 29.96 in 0.8 mi Calm Calm - 0.00 in Snow Light Snow
11:43 AM 21.2 °F - 15.8 °F 80% 29.96 in 1.2 mi Calm Calm - 0.00 in Snow Light Snow
11:53 AM 21.9 °F - 16.0 °F 78% 29.98 in 1.2 mi Calm Calm - 0.00 in Snow Light Snow
12:20 PM 21.2 °F - 15.8 °F 80% 29.94 in 0.8 mi Calm Calm - 0.00 in Snow Light Snow
12:31 PM 21.2 °F - 17.6 °F 86% 29.93 in 1.0 mi Calm Calm - 0.00 in Snow Light Snow
12:53 PM 23.0 °F 18.4 °F 17.1 °F 78% 29.95 in 1.8 mi ESE 3.5 mph - 0.00 in Snow Light Snow
1:33 PM 24.8 °F - 17.6 °F 74% 29.91 in 1.5 mi Calm Calm - 0.00 in Snow Light Snow
1:53 PM 23.0 °F - 18.0 °F 81% 29.93 in 1.0 mi Calm Calm - 0.00 in Snow Light Snow
2:27 PM 24.8 °F - 17.6 °F 74% 29.89 in 1.5 mi Calm Calm - 0.01 in Snow Light Snow
2:53 PM 25.0 °F - 19.0 °F 78% 29.91 in 1.5 mi Calm Calm - 0.01 in Snow Light Snow
3:20 PM 24.8 °F - 17.6 °F 74% 29.88 in 2.5 mi Calm Calm - 0.01 in Snow Light Snow
3:32 PM 24.8 °F - 17.6 °F 74% 29.88 in 3.0 mi Calm Calm - 0.01 in Snow Light Snow
3:53 PM 25.0 °F 20.7 °F 17.1 °F 72% 29.90 in 4.0 mi NE 3.5 mph - 0.01 in   Haze
4:53 PM 25.0 °F - 18.0 °F 75% 29.90 in 3.0 mi Calm Calm - N/A   Haze
5:53 PM 24.1 °F 19.7 °F 17.1 °F 75% 29.89 in 3.0 mi East 3.5 mph - 0.00 in   Haze
6:09 PM 24.8 °F 20.5 °F 17.6 °F 74% 29.87 in 3.0 mi East 3.5 mph - 0.00 in Snow Light Snow
6:53 PM 24.1 °F 19.7 °F 18.0 °F 77% 29.90 in 3.0 mi East 3.5 mph - 0.00 in Snow Light Snow
7:07 PM 24.8 °F 20.5 °F 17.6 °F 74% 29.88 in 4.0 mi ENE 3.5 mph - 0.00 in   Haze
7:53 PM 24.1 °F 19.7 °F 18.0 °F 77% 29.92 in 5.0 mi ENE 3.5 mph - 0.00 in   Haze
8:11 PM 24.8 °F 20.5 °F 17.6 °F 74% 29.90 in 5.0 mi NE 3.5 mph - N/A   Haze
8:53 PM 23.0 °F 15.8 °F 17.1 °F 78% 29.93 in 4.0 mi ENE 5.8 mph - 0.00 in   Haze
9:53 PM 21.9 °F 17.2 °F 16.0 °F 78% 29.94 in 4.0 mi ENE 3.5 mph - 0.00 in Snow Light Snow
10:00 PM 21.2 °F 16.4 °F 15.8 °F 80% 29.91 in 4.0 mi ENE 3.5 mph - 0.00 in Snow Light Snow
10:53 PM 21.9 °F 17.2 °F 16.0 °F 78% 29.93 in 6.0 mi NE 3.5 mph - 0.00 in   Haze
11:53 PM 21.9 °F 17.2 °F 16.0 °F 78% 29.95 in 6.0 mi NE 3.5 mph - N/A   Haze